Air Resources Laboratory banner image
Air Resources Laboratory web site National Oceanic and Atmospheric Administration (NOAA)

nd roundup


Office: BIS

ASUS43 KBIS 110402
RWRND

NORTH DAKOTA REGIONAL WEATHER ROUNDUP
NATIONAL WEATHER SERVICE BISMARCK ND
1100 PM CDT WED AUG 10 2022

NOTE: "FAIR" INDICATES FEW OR NO CLOUDS BELOW 12,000 FEET WITH NO
SIGNIFICANT WEATHER AND/OR OBSTRUCTIONS TO VISIBILITY.


NDZ001>003-009>011-017-110500-
NORTHWEST NORTH DAKOTA

CITY           SKY/WX    TMP DP  RH WIND       PRES   REMARKS
WILLISTON      CLEAR     65  52  62 E12       30.21F
MINOT          CLOUDY    67  55  65 E7        30.25R
MINOT AFB      CLOUDY    64  56  76 SE10      30.22S
$$

NDZ018>021-031>035-040>046-110500-
SOUTHWEST NORTH DAKOTA

CITY           SKY/WX    TMP DP  RH WIND       PRES   REMARKS
BISMARCK       CLEAR     68  53  58 NE9       30.22S
DICKINSON      CLEAR     69  52  54 E16       30.19R
GARRISON         N/A     68  52  56 E9        30.23F
HETTINGER ARPT CLEAR     72  54  53 E15       30.18S
$$

NDZ004>008-012>016-024-026-027-054-110500-
NORTHEAST NORTH DAKOTA

CITY           SKY/WX    TMP DP  RH WIND       PRES   REMARKS
GRAND FORKS    PTCLDY    57  51  80 N5        30.26R
GRND FRKS AFB  CLOUDY    56  51  84 N6        30.26S
DEVILS LAKE    CLOUDY    64  53  67 E13       30.28S
$$

NDZ022-023-025-028>030-036>039-047>053-110500-
SOUTHEAST NORTH DAKOTA

CITY           SKY/WX    TMP DP  RH WIND       PRES   REMARKS
FARGO          PTCLDY    65  53  65 N13       30.24R
JAMESTOWN      MOCLDY    66  55  67 NE13      30.25R
$$



ASUS43 KBIS 110402
RWRBIS

NWR BROADCAST TEXT
NATIONAL WEATHER SERVICE BISMARCK ND
1100 PM CDT WED AUG 10 2022

NOTE: "FAIR" INDICATES FEW OR NO CLOUDS BELOW 12,000 FEET WITH NO
SIGNIFICANT WEATHER AND/OR OBSTRUCTIONS TO VISIBILITY.


CITY           SKY/WX    TMP DP  RH WIND       PRES   REMARKS
WILLISTON      CLEAR     65  52  62 E12       30.21F
MINOT          CLOUDY    67  55  65 E7        30.25R
MINOT AFB      CLOUDY    64  56  76 SE10      30.22S
BISMARCK       CLEAR     68  53  58 NE9       30.22S
DICKINSON      CLEAR     69  52  54 E16       30.19R
GARRISON         N/A     68  52  56 E9        30.23F
HETTINGER ARPT CLEAR     72  54  53 E15       30.18S
JAMESTOWN      MOCLDY    66  55  67 NE13      30.25R
CARRINGTON     FAIR      66  55  68 E8        30.28S
HAZEN          FAIR      66  52  59 E6        30.24S
MANDAN         CLEAR     68  55  64 E9        30.23S
OAKES          FAIR      64  61  88 NE9       30.23R
STANLEY        FAIR      64  57  77 E7        30.26S
TIOGA          FAIR      59  59 100 E8        30.26F
WATFORD CITY   MOCLDY    70  52  52 E7        30.21S
$$

CITY           SKY/WX    TMP DP  RH WIND       PRES   REMARKS
GRAND FORKS    PTCLDY    57  51  80 N5        30.26R
GRAND FORKS AF CLOUDY    56  51  84 N6        30.26S
DEVILS LAKE    CLOUDY    64  53  67 E13       30.28S
FARGO          PTCLDY    65  53  65 N13       30.24R
CANDO          FAIR      63  54  72 E8        30.29S
CAVALIER       FAIR      63  55  77 N5        30.28S
GRAFTON        FAIR      61  54  77 N6        30.28S
GWINNER        CLEAR     63  63 100 NE7       30.23R
LANGDON        FAIR      61  61 100 NE7       30.29F
ROLLA          FAIR      61  55  82 E8        30.30S
WALHALLA       FAIR      59  59 100 NW3       30.28F
$$

CITY           SKY/WX    TMP DP  RH WIND       PRES   REMARKS
ABERDEEN       CLEAR     70  60  70 NE12      30.19S
MOBRIDGE       CLEAR     73  56  54 E16       30.16R
BUFFALO          N/A     76  60  57 E17       30.11R
RAPID CITY     PTCLDY    80  59  48 E12       30.13R
GLASGOW        MOCLDY    80  49  33 E24       30.11R
SIDNEY         CLEAR     74  51  44 E12       30.17R
WOLF POINT     PTCLDY    76  49  38 E16       30.13S
GLENDIVE       CLEAR     76  52  43 E17       30.15R
MILES CITY     CLEAR     83  59  44 NE13      30.04R
BAKER          CLEAR     74  53  48 E23G29    30.15R
$$

CITY           SKY/WX    TMP DP  RH WIND       PRES   REMARKS
BILLINGS       MOCLDY    85  58  39 NE8       30.05S
GREAT FALLS    MOCLDY    80  46  30 NW9       30.11R
$$



ASUS43 KBIS 110410
RWRND
NORTH DAKOTA REGIONAL WEATHER ROUNDUP
NATIONAL WEATHER SERVICE EASTERN NORTH DAKOTA/GRAND FORKS ND
1100 PM CDT WED AUG 10 2022

  NOTE: "FAIR" INDICATES FEW OR NO CLOUDS BELOW 12,000 FEET WITH NO
  SIGNIFICANT WEATHER AND/OR OBSTRUCTIONS TO VISIBILITY.

NDZ001>003-009>011-017-110500-
...NORTHWEST NORTH DAKOTA...

CITY           SKY/WX    TMP DP  RH WIND       PRES   REMARKS
WILLISTON      NOT AVBL
MINOT          FAIR      67  55  65 E7        30.25R
MINOT AFB      CLOUDY    64  56  76 SE10      30.22S
$$

NDZ018>021-031>035-040>046-110500-
...SOUTHWEST NORTH DAKOTA...

CITY           SKY/WX    TMP DP  RH WIND       PRES   REMARKS
BISMARCK       FAIR      68  53  58 NE9       30.22S
DICKINSON      FAIR      69  52  54 E16       30.19R
GARRISON         N/A     68  52  56 E9        30.23F
HETTINGER      FAIR      72  54  53 E15       30.18S
$$

NDZ004>008-012>016-024-026-027-054-110500-
...NORTHEAST NORTH DAKOTA...

CITY           SKY/WX    TMP DP  RH WIND       PRES   REMARKS
GRAND FORKS    FAIR      57  51  80 N5        30.26R
GRAND FORKS AF CLOUDY    56  51  84 N6        30.26S
DEVILS LAKE    FAIR      64  53  67 E13       30.28S
$$

NDZ022-023-025-028>030-036>039-047>053-110500-
...SOUTHEAST NORTH DAKOTA...

CITY           SKY/WX    TMP DP  RH WIND       PRES   REMARKS
JAMESTOWN      FAIR      66  55  67 NE13      30.25R
FARGO          FAIR      65  53  65 N13       30.24R
WAHPETON       FAIR      68  55  64 NE6       30.20S
$$


ASUS43 KBIS 110410
RWRBIS

NWR BROADCAST TEXT
NATIONAL WEATHER SERVICE BISMARCK ND
1100 PM CDT WED AUG 10 2022

NOTE: "FAIR" INDICATES FEW OR NO CLOUDS BELOW 12,000 FEET WITH NO
SIGNIFICANT WEATHER AND/OR OBSTRUCTIONS TO VISIBILITY.


CITY           SKY/WX    TMP DP  RH WIND       PRES   REMARKS
WILLISTON      CLEAR     65  52  62 E12       30.21F
MINOT          MOCLDY    67  55  65 E7        30.25R
MINOT AFB      CLOUDY    64  56  76 SE10      30.22S
BISMARCK       PTCLDY    68  53  58 NE9       30.22S
DICKINSON      CLEAR     69  52  54 E16       30.19R
GARRISON         N/A     68  52  56 E9        30.23F
HETTINGER ARPT CLEAR     72  54  53 E15       30.18S
JAMESTOWN      MOCLDY    66  55  67 NE13      30.25R
CARRINGTON     FAIR      66  55  68 E8        30.28S
HAZEN          FAIR      66  52  59 E6        30.24S
MANDAN         CLEAR     68  55  64 E9        30.23S
OAKES          FAIR      64  61  88 NE9       30.23R
STANLEY        FAIR      64  57  77 E7        30.26S
TIOGA          FAIR      59  59 100 E8        30.26F
WATFORD CITY   MOCLDY    70  52  52 E7        30.21S
$$

CITY           SKY/WX    TMP DP  RH WIND       PRES   REMARKS
GRAND FORKS    MOCLDY    57  51  80 N5        30.26R
GRAND FORKS AF CLOUDY    56  51  84 N6        30.26S
DEVILS LAKE    CLOUDY    64  53  67 E13       30.28S
FARGO          PTCLDY    65  53  65 N13       30.24R
CANDO          FAIR      63  54  72 E8        30.29S
CAVALIER       FAIR      63  55  77 N5        30.28S
GRAFTON        FAIR      61  54  77 N7        30.28S
GWINNER        CLEAR     63  63 100 NE7       30.23R
LANGDON        FAIR      61  61 100 NE7       30.29F
ROLLA          FAIR      61  55  82 E8        30.30S
WALHALLA       FAIR      59  59 100 NW3       30.28F
$$

CITY           SKY/WX    TMP DP  RH WIND       PRES   REMARKS
ABERDEEN       CLEAR     70  60  70 NE12      30.19S
MOBRIDGE       CLEAR     73  56  54 E16       30.16R
BUFFALO          N/A     76  60  57 E17       30.11R
RAPID CITY     PTCLDY    80  59  48 E12       30.13R
GLASGOW        MOCLDY    80  49  33 E24       30.11R
SIDNEY         CLEAR     74  51  44 E12       30.17R
WOLF POINT     PTCLDY    76  49  38 E16       30.13S
GLENDIVE       CLEAR     76  52  43 E17       30.15R
MILES CITY     CLEAR     83  59  44 NE13      30.04R
BAKER          CLEAR     74  53  48 E23G29    30.15R
$$

CITY           SKY/WX    TMP DP  RH WIND       PRES   REMARKS
BILLINGS       MOCLDY    85  58  39 NE8       30.05S
GREAT FALLS    CLOUDY    80  46  30 NW9       30.11R
$$



ASUS43 KBIS 110410
RWRND

NORTH DAKOTA REGIONAL WEATHER ROUNDUP
NATIONAL WEATHER SERVICE BISMARCK ND
1100 PM CDT WED AUG 10 2022

NOTE: "FAIR" INDICATES FEW OR NO CLOUDS BELOW 12,000 FEET WITH NO
SIGNIFICANT WEATHER AND/OR OBSTRUCTIONS TO VISIBILITY.


NDZ001>003-009>011-017-110500-
NORTHWEST NORTH DAKOTA

CITY           SKY/WX    TMP DP  RH WIND       PRES   REMARKS
WILLISTON      CLEAR     65  52  62 E12       30.21F
MINOT          MOCLDY    67  55  65 E7        30.25R
MINOT AFB      CLOUDY    64  56  76 SE10      30.22S
$$

NDZ018>021-031>035-040>046-110500-
SOUTHWEST NORTH DAKOTA

CITY           SKY/WX    TMP DP  RH WIND       PRES   REMARKS
BISMARCK       PTCLDY    68  53  58 NE9       30.22S
DICKINSON      CLEAR     69  52  54 E16       30.19R
GARRISON         N/A     68  52  56 E9        30.23F
HETTINGER ARPT CLEAR     72  54  53 E15       30.18S
$$

NDZ004>008-012>016-024-026-027-054-110500-
NORTHEAST NORTH DAKOTA

CITY           SKY/WX    TMP DP  RH WIND       PRES   REMARKS
GRAND FORKS    MOCLDY    57  51  80 N5        30.26R
GRND FRKS AFB  CLOUDY    56  51  84 N6        30.26S
DEVILS LAKE    CLOUDY    64  53  67 E13       30.28S
$$

NDZ022-023-025-028>030-036>039-047>053-110500-
SOUTHEAST NORTH DAKOTA

CITY           SKY/WX    TMP DP  RH WIND       PRES   REMARKS
FARGO          PTCLDY    65  53  65 N13       30.24R
JAMESTOWN      MOCLDY    66  55  67 NE13      30.25R
$$



ASUS43 KBIS 110431
RWRND
NORTH DAKOTA REGIONAL WEATHER ROUNDUP
NATIONAL WEATHER SERVICE EASTERN NORTH DAKOTA/GRAND FORKS ND
1100 PM CDT WED AUG 10 2022

  NOTE: "FAIR" INDICATES FEW OR NO CLOUDS BELOW 12,000 FEET WITH NO
  SIGNIFICANT WEATHER AND/OR OBSTRUCTIONS TO VISIBILITY.

NDZ001>003-009>011-017-110500-
...NORTHWEST NORTH DAKOTA...

CITY           SKY/WX    TMP DP  RH WIND       PRES   REMARKS
WILLISTON      NOT AVBL
MINOT          FAIR      67  55  65 E7        30.25R
MINOT AFB      CLOUDY    64  56  76 SE10      30.22S
$$

NDZ018>021-031>035-040>046-110500-
...SOUTHWEST NORTH DAKOTA...

CITY           SKY/WX    TMP DP  RH WIND       PRES   REMARKS
BISMARCK       FAIR      68  53  58 NE9       30.22S
DICKINSON      FAIR      69  52  54 E16       30.19R
GARRISON         N/A     68  52  56 E9        30.23F
HETTINGER      FAIR      72  54  53 E15       30.18S
$$

NDZ004>008-012>016-024-026-027-054-110500-
...NORTHEAST NORTH DAKOTA...

CITY           SKY/WX    TMP DP  RH WIND       PRES   REMARKS
GRAND FORKS    FAIR      57  51  80 N5        30.26R
GRAND FORKS AF CLOUDY    56  51  84 N6        30.26S
DEVILS LAKE    FAIR      64  53  67 E13       30.28S
$$

NDZ022-023-025-028>030-036>039-047>053-110500-
...SOUTHEAST NORTH DAKOTA...

CITY           SKY/WX    TMP DP  RH WIND       PRES   REMARKS
JAMESTOWN      FAIR      66  55  67 NE13      30.25R
FARGO          FAIR      65  53  65 N13       30.24R
WAHPETON       FAIR      66  55  68 NE6       30.21S
$$




Office: FGF ASUS43 KFGF 110410 RWRFGF PRAIRIE TO PINES WEATHER ROUNDUP NATIONAL WEATHER SERVICE EASTERN NORTH DAKOTA/GRAND FORKS ND 1100 PM CDT WED AUG 10 2022 **SATELLITE DATA USED TO AUGMENT SKY COVER AT AUTOMATED STATIONS** ***** WEATHER ACROSS EASTERN NORTH DAKOTA ***** CITY SKY/WX TMP DP RH WIND PRES REMARKS GRAND FORKS FAIR 57 51 80 N5 30.26R GRAND FRKS AFB CLOUDY 56 51 84 N6 30.26S DEVILS LAKE FAIR 64 53 67 E13 30.28S FARGO FAIR 65 53 65 N13 30.24R WAHPETON ARPT FAIR 68 55 64 NE6 30.20S $$ ***** WEATHER ACROSS CENTRAL AND WESTERN NORTH DAKOTA ***** CITY SKY/WX TMP DP RH WIND PRES REMARKS BISMARCK FAIR 68 53 58 NE9 30.22S MINOT FAIR 67 55 65 E7 30.25R JAMESTOWN FAIR 66 55 67 NE13 30.25R MINOT AFB CLOUDY 64 56 76 SE10 30.22S GARRISON N/A 68 52 56 E9 30.23F WILLISTON NOT AVBL DICKINSON FAIR 69 52 54 E16 30.19R HETTINGER FAIR 72 54 53 E15 30.18S $$ ***** OTHER AIRPORT OBSERVATIONS IN OUR AREA ***** CITY SKY/WX TMP DP RH WIND PRES REMARKS WALHALLA FAIR 59 59 100 NW3 30.28F GRAFTON AIRPOR FAIR 61 54 77 N7 30.28S VALLEY CITY AR FAIR 66 55 68 NE12 30.27R CANDO FAIR 63 54 72 E8 30.29S CAVALIER APRT FAIR 63 55 77 N5 30.28S GWINNER CLEAR 63 63 100 NE7 30.23R SHEYENNE NWR N/A 65 57 75 N5 29.95S ROLLA FAIR 61 55 82 E8 30.30S ***** THE ABOVE OBSERVATIONS ARE NON NWS ARE NOT QUALITY CONTROLLED AND MAY MIS-REPORT RAIN FOR SNOW... $$ ***** WEATHER ACROSS NORTHERN MINNESOTA ***** CITY SKY/WX TMP DP RH WIND PRES REMARKS FLAG ISLAND NOT AVBL WARROAD FAIR 61 55 82 NW5 30.27S ROSEAU N/A 59 54 82 NW5 30.28R HALLOCK FAIR 59 55 88 N5 30.27S THF RVR FALLS FAIR 63 53 70 N7 30.28 BAUDETTE FAIR 55 51 86 CALM 30.27S WASKISH FAIR 61 52 72 CALM 30.26R CROOKSTON FAIR 57 52 82 N3 30.27R STEPHEN NDAWN N/A 59 54 82 VRB2 N/A GREENBUSH NDAW N/A 57 52 82 VRB3 N/A $$ ***** WEATHER ACROSS CENTRAL AND WEST MINNESOTA ***** CITY SKY/WX TMP DP RH WIND PRES REMARKS FOSSTON FAIR 57 50 77 N5 30.27S BEMIDJI FAIR 56 53 90 CALM 30.26S PARK RAPIDS FAIR 66 55 67 NE3 30.25R ELBOW LAKE FAIR 67 58 72 NE3 30.22S WADENA CLEAR 61 54 77 NE3 30.24S DETROIT LAKES FAIR 63 59 88 NE6 30.25R MOORHEAD FAIR 64 55 72 NE8 30.24R FERGUS FALLS FAIR 64 54 68 NE3 30.20S MORRIS MN FAIR 63 59 88 NE5 30.22R STAPLES FAIR 63 55 77 CALM 30.25R $$ ***** WEATHER ELSEWHERE ACROSS MINNESOTA ***** CITY SKY/WX TMP DP RH WIND PRES REMARKS DULUTH FAIR 61 51 70 NW6 30.23R INTRNTL FALLS FAIR 53 50 89 CALM 30.25R ELY N/A 52 50 93 CALM 30.25R CLOQUET NOT AVBL WHEATON N/A 66 55 68 NE3 30.23R BRAINERD FAIR 65 56 72 N3 30.23R HIBBING FAIR 50 50 100 NW3 30.24R ALEXANDRIA FAIR 65 56 72 E8 30.24S SAINT CLOUD FAIR 65 55 70 NE3 30.21R MINNEAPOLIS FAIR 73 55 53 N6 30.19R $$ ***** WEATHER ACROSS SOUTH DAKOTA ***** CITY SKY/WX TMP DP RH WIND PRES REMARKS SIOUX FALLS FAIR 78 70 76 E7 30.16R BROOKINGS FAIR 72 64 76 E10 30.20R WATERTOWN FAIR 70 59 68 E8 30.20S HURON FAIR 74 69 85 E8 30.15R SISSETON N/A 66 58 75 NE7 30.20S ABERDEEN FAIR 70 60 70 NE12 30.19S MITCHELL FAIR 77 72 84 E10 30.12S PIERRE FAIR 76 67 73 E17 30.10S MOBRIDGE FAIR 73 56 54 E16 30.16R RAPID CITY FAIR 80 59 48 E12 30.13R $$ ***** SOME WEATHER IN NEARBY STATES ***** CITY SKY/WX TMP DP RH WIND PRES REMARKS GLASGOW MT FAIR 80 49 33 E24 30.11R GREAT FALLS MT FAIR 80 46 30 NW9 30.11R CHEYENNE WY FAIR 76 48 37 SE15 30.35R SCOTTSBLUFF NE FAIR 73 52 47 E7 30.20R OMAHA NE FAIR 78 67 68 SE5 30.16R DES MOINES IA FAIR 78 62 57 SE5 30.16S DAVENPORT IA FAIR 67 64 90 W3 30.16S CHICAGO IL FAIR 74 64 71 W6 30.11S EAU CLAIRE WI FAIR 65 56 72 N5 30.18R LA CROSSE WI FAIR 73 61 65 N6 30.15R $$ ***** SOME NATIONAL WEATHER ***** CITY SKY/WX TMP DP RH WIND PRES REMARKS LA GUARDIA NY CLOUDY 78 68 71 S9 29.97S RALEIGH NC MOCLDY 80 71 74 SW8 30.09R ATLANTA GA MOCLDY 73 71 93 CALM 30.15S NEW ORLEANS LA MOCLDY 79 75 87 SE6 30.06S OKLAHOMA CITY FAIR 83 64 52 E9 30.10R ALBUQUERQUE NM MOCLDY 76 55 48 E16 30.34R SALT LAKE CITY MOCLDY 75 62 64 NW20G29 30.26R LOS ANGELES CA FAIR 73 60 63 SW7 29.98S BOISE ID FAIR 81 56 42 CALM 30.07R SEATTLE WA MOCLDY 65 56 72 S6 30.14R $$ *** WEATHER ACROSS MANITOBA...SASKATCHEWAN AND ONTARIO *** ***ONTARIO*** CITY SKY/WX TMP DP RH WIND PRES REMARKS GERALDTON NOT AVBL THUNDER BAY NOT AVBL SIOUX LOOKOUT NOT AVBL TORONTO NOT AVBL BIG TROUT LK NOT AVBL PICKLE LAKE NOT AVBL DRYDEN NOT AVBL KENORA NOT AVBL $$ *** MANITOBA*** CITY SKY/WX TMP DP RH WIND PRES REMARKS BRANDON MOCLDY 57 55 94 E6 30.29R DAUPHIN NOT AVBL ISLAND LAKE NOT AVBL PILOT MOUND NOT AVBL THE PAS NOT AVBL THOMPSON NOT AVBL WINNIPEG NOT AVBL $$ ***SASKATCHEWAN*** CITY SKY/WX TMP DP RH WIND PRES REMARKS ESTEVAN NOT AVBL KINDERSLEY NOT AVBL LLOYDMINSTER NOT AVBL PRINCE ALBERT NOT AVBL REGINA NOT AVBL YORKTON NOT AVBL N. BATTLEFORD NOT AVBL LA RONGE NOT AVBL SASKATOON NOT AVBL SWIFT CURRENT NOT AVBL $$ NOTE: THESE ARE AUTOMATED STATIONS WITH LIMITED QUALITY CONTROL "FAIR" INDICATES FEW OR NO CLOUDS BELOW 12,000 FEET WITH NO SIGNIFICANT WEATHER AND/OR OBSTRUCTIONS TO VISIBILITY. SKY/WX - SKY CONDITION AND SIGNIFICANT WEATHER. TMP - AIR TEMPERATURE. DP - DEWPOINT TEMPERATURE. RH - RELATIVE HUMIDITY. PRES - PRESSURE. HX - HEAT INDEX. WCI - WIND CHILL INDEX. $ ASUS43 KFGF 110431 RWRFGF PRAIRIE TO PINES WEATHER ROUNDUP NATIONAL WEATHER SERVICE EASTERN NORTH DAKOTA/GRAND FORKS ND 1100 PM CDT WED AUG 10 2022 **SATELLITE DATA USED TO AUGMENT SKY COVER AT AUTOMATED STATIONS** ***** WEATHER ACROSS EASTERN NORTH DAKOTA ***** CITY SKY/WX TMP DP RH WIND PRES REMARKS GRAND FORKS FAIR 57 51 80 N5 30.26R GRAND FRKS AFB CLOUDY 56 51 84 N6 30.26S DEVILS LAKE FAIR 64 53 67 E13 30.28S FARGO FAIR 65 53 65 N13 30.24R WAHPETON ARPT FAIR 66 55 68 NE6 30.21S $$ ***** WEATHER ACROSS CENTRAL AND WESTERN NORTH DAKOTA ***** CITY SKY/WX TMP DP RH WIND PRES REMARKS BISMARCK FAIR 68 53 58 NE9 30.22S MINOT FAIR 67 55 65 E7 30.25R JAMESTOWN FAIR 66 55 67 NE13 30.25R MINOT AFB CLOUDY 64 56 76 SE10 30.22S GARRISON N/A 68 52 56 E9 30.23F WILLISTON NOT AVBL DICKINSON FAIR 69 52 54 E16 30.19R HETTINGER FAIR 72 54 53 E15 30.18S $$ ***** OTHER AIRPORT OBSERVATIONS IN OUR AREA ***** CITY SKY/WX TMP DP RH WIND PRES REMARKS WALHALLA FAIR 59 59 100 CALM 30.28S GRAFTON AIRPOR FAIR 61 54 77 N7 30.28S VALLEY CITY AR FAIR 66 55 68 NE8 30.26S CANDO FAIR 63 55 77 E8 30.30S CAVALIER APRT FAIR 63 55 77 CALM 30.28S GWINNER CLEAR 63 63 100 NE7 30.23R SHEYENNE NWR N/A 65 57 75 N5 29.95S ROLLA FAIR 59 57 94 E6 30.30S ***** THE ABOVE OBSERVATIONS ARE NON NWS ARE NOT QUALITY CONTROLLED AND MAY MIS-REPORT RAIN FOR SNOW... $$ ***** WEATHER ACROSS NORTHERN MINNESOTA ***** CITY SKY/WX TMP DP RH WIND PRES REMARKS FLAG ISLAND NOT AVBL WARROAD FAIR 59 55 88 NW6 30.28R ROSEAU N/A 57 54 88 N5 30.28R HALLOCK FAIR 59 55 88 N5 30.27S THF RVR FALLS FAIR 63 53 70 N7 30.28 BAUDETTE FAIR 55 51 86 CALM 30.27S WASKISH FAIR 61 52 72 NE5 30.26R CROOKSTON FAIR 61 52 72 NE3 30.27S STEPHEN NDAWN N/A 57 54 88 VRB3 N/A GREENBUSH NDAW N/A 55 52 88 VRB3 N/A $$ ***** WEATHER ACROSS CENTRAL AND WEST MINNESOTA ***** CITY SKY/WX TMP DP RH WIND PRES REMARKS FOSSTON FAIR 55 50 82 CALM 30.27S BEMIDJI FAIR 57 54 88 CALM 30.26S PARK RAPIDS FAIR 66 55 67 NE3 30.25R ELBOW LAKE FAIR 67 58 73 CALM 30.22F WADENA FAIR 59 54 82 NE3 30.24S DETROIT LAKES FAIR 64 57 77 N8 30.25R MOORHEAD FAIR 63 57 82 NE7 30.25R FERGUS FALLS FAIR 64 55 72 NE5 30.20S MORRIS MN FAIR 63 59 88 NE6 30.21S STAPLES FAIR 63 55 77 CALM 30.24S $$ ***** WEATHER ELSEWHERE ACROSS MINNESOTA ***** CITY SKY/WX TMP DP RH WIND PRES REMARKS DULUTH FAIR 61 51 70 NW6 30.23R INTRNTL FALLS FAIR 53 50 89 CALM 30.25R ELY N/A 52 52 100 CALM 30.25R CLOQUET NOT AVBL WHEATON N/A 66 55 68 N5 30.23S BRAINERD FAIR 65 56 72 N3 30.23R HIBBING FAIR 50 50 100 NW3 30.24R ALEXANDRIA FAIR 65 56 72 E8 30.24S SAINT CLOUD FAIR 65 55 70 NE3 30.21R MINNEAPOLIS FAIR 73 55 53 N6 30.19R $$ ***** WEATHER ACROSS SOUTH DAKOTA ***** CITY SKY/WX TMP DP RH WIND PRES REMARKS SIOUX FALLS FAIR 78 70 76 E7 30.16R BROOKINGS FAIR 72 64 76 E10 30.20R WATERTOWN FAIR 70 59 68 E8 30.20S HURON FAIR 74 69 85 E8 30.15R SISSETON N/A 66 58 75 NE7 30.20S ABERDEEN FAIR 70 60 70 NE12 30.19S MITCHELL FAIR 77 72 84 E10 30.12S PIERRE FAIR 76 67 73 E17 30.10S MOBRIDGE FAIR 73 56 54 E16 30.16R RAPID CITY FAIR 80 59 48 E12 30.13R $$ ***** SOME WEATHER IN NEARBY STATES ***** CITY SKY/WX TMP DP RH WIND PRES REMARKS GLASGOW MT FAIR 80 49 33 E24 30.11R GREAT FALLS MT FAIR 80 46 30 NW9 30.11R CHEYENNE WY FAIR 76 48 37 SE15 30.35R SCOTTSBLUFF NE FAIR 73 52 47 E7 30.20R OMAHA NE FAIR 78 67 68 SE5 30.16R DES MOINES IA FAIR 78 62 57 SE5 30.16S DAVENPORT IA FAIR 67 64 90 W3 30.16S CHICAGO IL FAIR 74 64 71 W6 30.11S EAU CLAIRE WI FAIR 65 56 72 N5 30.18R LA CROSSE WI FAIR 73 61 65 N6 30.15R $$ ***** SOME NATIONAL WEATHER ***** CITY SKY/WX TMP DP RH WIND PRES REMARKS LA GUARDIA NY CLOUDY 78 68 71 S9 29.97S RALEIGH NC MOCLDY 80 71 74 SW8 30.09R ATLANTA GA MOCLDY 73 71 93 CALM 30.15S NEW ORLEANS LA MOCLDY 79 75 87 SE6 30.06S OKLAHOMA CITY FAIR 83 64 52 E9 30.10R ALBUQUERQUE NM MOCLDY 76 55 48 E16 30.34R SALT LAKE CITY MOCLDY 75 62 64 NW20G29 30.26R LOS ANGELES CA FAIR 73 60 63 SW7 29.98S BOISE ID FAIR 81 56 42 CALM 30.07R SEATTLE WA MOCLDY 65 56 72 S6 30.14R $$ *** WEATHER ACROSS MANITOBA...SASKATCHEWAN AND ONTARIO *** ***ONTARIO*** CITY SKY/WX TMP DP RH WIND PRES REMARKS GERALDTON NOT AVBL THUNDER BAY CLEAR 61 52 72 N3 30.19R SIOUX LOOKOUT CLEAR 50 50 100 N2 30.26R TORONTO PTCLDY 70 59 68 W8 30.01R BIG TROUT LK CLEAR 54 48 82 NW6 30.18R PICKLE LAKE CLEAR 55 46 71 W3 30.23R DRYDEN CLEAR 59 50 72 N5 30.26R KENORA PTCLDY 61 52 72 NE5 30.28R $$ *** MANITOBA*** CITY SKY/WX TMP DP RH WIND PRES REMARKS BRANDON MOCLDY 57 55 94 E6 30.29R DAUPHIN CLEAR 54 N/A N/A S5 30.27S ISLAND LAKE CLEAR 57 54 88 CALM 30.25R PILOT MOUND N/A 55 55 100 E6 N/A THE PAS CLEAR 55 50 82 SE6 30.24S THOMPSON CLEAR 52 48 87 CALM 30.21S WINNIPEG PTCLDY 55 54 94 CALM 30.28S LYNN LAKE CLEAR 57 48 72 S6 30.16S CHURCHILL PTCLDY 59 48 67 S8 30.10S GILLAM CLEAR 57 50 77 SW5 30.18S $$ ***SASKATCHEWAN*** CITY SKY/WX TMP DP RH WIND PRES REMARKS ESTEVAN CLOUDY 63 55 77 SE8G17 30.23F KINDERSLEY MOCLDY 70 50 49 SE13 30.10S LLOYDMINSTER PTCLDY 66 57 72 SE13 30.06S PRINCE ALBERT MOCLDY 61 55 82 SE3 30.20R REGINA CLOUDY 64 55 72 SE15 30.21F YORKTON CLEAR 59 48 67 S6 30.24F N. BATTLEFORD CLEAR 64 54 68 SE16 30.13F LA RONGE CLEAR 64 55 72 S5 30.15S SASKATOON PTCLDY 66 54 63 SE17 30.16F SWIFT CURRENT PTCLDY 72 52 49 SE14G20 30.13F $$ NOTE: THESE ARE AUTOMATED STATIONS WITH LIMITED QUALITY CONTROL "FAIR" INDICATES FEW OR NO CLOUDS BELOW 12,000 FEET WITH NO SIGNIFICANT WEATHER AND/OR OBSTRUCTIONS TO VISIBILITY. SKY/WX - SKY CONDITION AND SIGNIFICANT WEATHER. TMP - AIR TEMPERATURE. DP - DEWPOINT TEMPERATURE. RH - RELATIVE HUMIDITY. PRES - PRESSURE. HX - HEAT INDEX. WCI - WIND CHILL INDEX. $